Change the Weather History Date:

Monday, August 11, 2014

  Actual Average Record
Temperature  
Mean Temperature 90 °F -  
Max Temperature 103 °F 95 °F - ()
Min Temperature 77 °F 71 °F - ()
Cooling Degree Days 25    
Growing Degree Days 40 (Base 50)    
Moisture  
Dew Point 24 °F    
Average Humidity 7    
Maximum Humidity 14    
Minimum Humidity 4    
Precipitation  
Precipitation 0.00 in 0.00 in - ()
Sea Level Pressure  
Sea Level Pressure 29.65 in    
Wind  
Wind Speed 6 mph ()    
Max Wind Speed 11 mph    
Max Gust Speed -    
Visibility 9.2 miles    
Events      
T = Trace of Precipitation, MM = Missing Value Source: Averaged Metar Reports

Daily Weather History Graph

Daily Weather History Graph

Search for Another Location

Airport or City:

Trip Planner

Search our weather history database for the weather conditions in past years. The results will help you decide how hot, cold, wet, or windy it might be!

Date:

Astronomy

Aug. 11, 2014 Rise Set
Actual Time 5:14 AM AFT 6:57 PM AFT
Civil Twilight 4:46 AM AFT 7:25 PM AFT
Nautical Twilight 4:13 AM AFT 7:58 PM AFT
Astronomical Twilight 3:37 AM AFT 8:34 PM AFT
Moon 7:11 PM AFT (8/11) 5:45 AM AFT (8/11)
Length of Visible Light 14h 38m
Length of Day
13h 42m
Full, 100% of the Moon is Illuminated
Aug 11
Full
Aug 17
Last Quarter
Aug 25
New
Sep 2
First Quarter
Sep 9
Full

Hourly Weather History & Observations

Time (AFT) Temp. Dew Point Humidity Pressure Visibility Wind Dir Wind Speed Gust Speed Precip Events Conditions
12:20 AM 93.2 °F 24.8 °F 9% 29.71 in 6.2 mi South 9.2 mph - N/A   Clear
12:30 AM 93 °F 24 °F 4% 29.61 in 12 mi South 8.9 mph - -  
1:20 AM 93.2 °F 24.8 °F 9% 29.71 in 6.2 mi SSW 10.4 mph - N/A   Clear
1:30 AM 92 °F 24 °F 4% 29.61 in 12 mi SSW 11.2 mph - -  
2:20 AM 86.0 °F 26.6 °F 12% 29.71 in 6.2 mi SW 8.1 mph - N/A   Clear
2:30 AM 86 °F 26 °F 5% 29.63 in 12 mi SW 8.9 mph - -  
3:20 AM 86.0 °F 24.8 °F 11% 29.71 in 6.2 mi SSE 3.5 mph - N/A   Clear
3:30 AM 86 °F 25 °F 5% 29.63 in 12 mi SSE 4.5 mph - -  
4:20 AM 86.0 °F 24.8 °F 11% 29.71 in 6.2 mi SE 4.6 mph - N/A   Clear
4:30 AM 86 °F 25 °F 5%  in 9 mi SE 4.5 mph - -  
5:20 AM 80.6 °F 24.8 °F 13% 29.71 in 6.2 mi ESE 5.8 mph - N/A   Clear
5:30 AM 80 °F 25 °F 6% 29.66 in 12 mi ESE 6.7 mph - -  
6:20 AM 80.6 °F 26.6 °F 14% 29.74 in 6.2 mi NE 6.9 mph - N/A   Clear
6:30 AM 80 °F 27 °F 7% 29.68 in 12 mi NE 6.7 mph - -  
7:30 AM 84 °F 28 °F 6%  in 12 mi NNE 6.7 mph - -  
8:20 AM 86.0 °F 26.6 °F 12% 29.74 in 6.2 mi NNE 3.5 mph - N/A   Clear
8:30 AM 87 °F 26 °F 5% 29.68 in 12 mi NNE 4.5 mph - -  
9:20 AM 91.4 °F 24.8 °F 9% 29.74 in 6.2 mi East 3.5 mph - N/A   Clear
9:30 AM 91 °F 25 °F 4% 29.67 in 12 mi East 4.5 mph - -  
10:20 AM 93.2 °F 23.0 °F 8% 29.74 in 6.2 mi ENE 3.5 mph - N/A   Clear
10:30 AM 94 °F 23 °F 4% 29.65 in 12 mi ENE 4.5 mph - -  
11:20 AM 96.8 °F 21.2 °F 7% 29.74 in 6.2 mi NNE 4.6 mph - N/A   Clear
11:30 AM 96 °F 22 °F 4% 29.64 in 12 mi NNE 4.5 mph - -  
12:20 PM 100.4 °F 21.2 °F 6% 29.71 in 6.2 mi NNW 5.8 mph - N/A   Clear
12:30 PM 100 °F 21 °F 4% 29.61 in 12 mi NNW 6.7 mph - -  
1:30 PM 100 °F 20 °F 4%  in 12 mi SE 4.5 mph - -  
2:20 PM 102.2 °F 19.4 °F 5% 29.68 in 6.2 mi NNW 4.6 mph - N/A   Clear
2:30 PM 102 °F 19 °F 4% 29.57 in 12 mi NNW 4.5 mph - -  
3:20 PM 102.2 °F 23.0 °F 6% 29.65 in 6.2 mi WNW 5.8 mph - N/A   Clear
3:30 PM 102 °F 23 °F 4% 29.55 in 12 mi WNW 6.7 mph - -  
4:20 PM 102.2 °F 24.8 °F 6% 29.65 in 6.2 mi NW 8.1 mph - N/A   Clear
4:30 PM 101 °F 24 °F 4%  in 12 mi NW 8.9 mph - -  
5:20 PM 100.4 °F 28.4 °F 8% 29.65 in 6.2 mi West 8.1 mph - N/A   Clear
5:30 PM 101 °F 28 °F 4% 29.54 in 12 mi West 8.9 mph - -  
6:20 PM 98.6 °F 24.8 °F 7% 29.65 in 6.2 mi West 6.9 mph - N/A   Clear
6:30 PM 99 °F 25 °F 4% 29.55 in 12 mi West 6.7 mph - -  
7:20 PM 96.8 °F 24.8 °F 8% 29.65 in 6.2 mi SW 4.6 mph - N/A   Clear
7:30 PM 96 °F 25 °F 4%  in 12 mi SW 4.5 mph - -  
8:20 PM 95.0 °F 26.6 °F 9% 29.65 in 6.2 mi South 4.6 mph - N/A   Clear
8:30 PM 94 °F 26 °F 4% 29.57 in 12 mi South 4.5 mph - -  
9:20 PM 95.0 °F 24.8 °F 8% 29.65 in 6.2 mi South 9.2 mph - N/A   Clear
9:30 PM 95 °F 24 °F 4% 29.57 in 12 mi South 8.9 mph - -  
10:20 PM 95.0 °F 24.8 °F 8% 29.65 in 6.2 mi SSW 8.1 mph - N/A   Clear
10:30 PM 95 °F 24 °F 4% 29.57 in 12 mi SSW 8.9 mph - -  
11:20 PM 93.2 °F 23.0 °F 8% 29.65 in 6.2 mi SSW 10.4 mph - N/A   Clear
11:30 PM 94 °F 24 °F 4% 29.57 in 12 mi SSW 11.2 mph - -